Theta_e
316 316 317 317 319 319 319 317 318 318 319 319 319 319 318 318 319 320 317 315 313 314 316 315 318 318 318 320 319 321 318 320 319 320 322 322 323 322 323 322 324 323 325 325 324 331 333 328 329 332 330 332 334 333
316 316 316 319 319 319 319 318 318 318 318 319 318 319 318 318 319 320 317 314 313 314 316 317 316 316 316 316 319 319 319 319 320 318 318 318 322 319 318 324 319 323 319 321 323 324 324 330 332 331 330 328 330 330
315 316 316 319 319 319 319 318 318 318 318 318 318 319 318 319 320 319 318 315 315 315 317 317 319 320 318 317 317 318 319 320 321 321 319 317 321 316 321 319 321 319 318 319 320 321 328 326 324 324 323 324 324 324
315 316 316 318 319 318 317 317 317 317 318 318 317 318 317 319 319 318 316 313 315 316 314 318 318 317 317 318 318 318 319 320 320 321 319 315 320 319 318 317 318 319 319 318 318 319 323 324 325 324 323 323 323 323
315 316 317 318 318 317 316 316 316 316 317 316 317 318 318 318 319 318 315 314 316 315 315 317 316 314 313 315 317 320 320 318 319 320 316 316 317 316 315 314 316 319 318 319 319 320 322 322 322 322 323 323 324 322
314 315 315 315 316 316 315 315 315 315 314 314 317 318 317 317 318 316 313 316 316 317 315 310 314 314 317 318 317 318 321 319 319 320 319 320 321 320 318 317 318 320 321 322 321 322 322 322 323 323 324 323 323 322
313 313 313 313 313 313 313 313 312 312 312 313 317 318 317 316 317 316 313 315 316 314 312 310 310 314 318 318 319 318 319 319 320 320 319 320 321 320 315 320 321 321 321 321 322 321 321 323 323 324 323 323 322 323
312 312 312 312 312 312 311 311 310 311 312 314 317 317 316 316 317 313 313 313 311 310 311 308 309 314 318 320 319 320 320 320 321 321 320 319 319 318 319 319 321 322 322 323 324 324 324 323 323 322 321 321 321 322
311 311 311 310 310 310 310 308 309 311 312 315 317 316 316 314 313 317 316 314 314 313 313 311 311 312 316 316 321 322 322 318 320 318 318 319 316 319 319 321 322 323 325 323 321 321 321 322 322 322 322 322 322 322
310 309 309 309 308 308 307 308 310 312 314 314 315 315 313 315 316 315 313 313 312 313 313 312 312 310 312 313 318 320 321 319 320 317 320 317 318 321 322 322 322 323 321 322 323 323 323 322 322 323 323 323 323 323
307 307 307 307 307 306 306 310 311 313 314 314 314 313 316 316 315 313 314 314 313 314 313 313 313 310 314 311 316 319 319 314 319 318 320 319 318 320 324 323 323 323 323 323 324 323 322 321 321 322 324 324 325 325
305 305 306 306 306 306 309 311 313 314 314 314 313 313 314 314 314 313 312 314 313 314 315 315 317 316 316 316 319 317 317 315 321 317 322 322 317 324 324 324 325 325 324 323 322 321 321 322 322 321 322 324 325 327
303 304 304 305 306 308 310 311 313 314 314 313 313 312 312 313 311 317 313 312 312 316 318 318 320 319 318 321 318 314 318 317 317 319 321 319 323 324 324 324 323 323 323 321 321 320 319 322 322 322 321 325 328 326
302 303 304 304 306 309 310 312 313 313 313 312 311 309 311 312 311 310 311 311 316 318 316 320 321 319 322 320 320 322 317 316 320 323 324 318 323 323 324 323 323 323 322 322 320 322 323 324 323 324 324 326 328 327
302 302 303 304 306 309 310 312 312 312 312 310 311 312 310 313 313 313 313 313 314 314 315 320 319 317 316 319 320 322 322 324 321 321 319 322 322 323 324 324 324 324 323 323 323 323 321 324 324 324 325 329 327 327
301 302 303 304 305 309 310 311 311 311 310 310 311 311 312 311 311 313 313 314 315 316 317 318 316 317 318 320 322 323 323 322 323 322 321 321 323 323 323 324 324 324 324 324 323 321 322 324 325 325 325 326 326 327
302 303 304 304 307 310 311 311 310 310 310 310 311 311 312 311 312 313 313 315 315 317 317 317 319 318 315 321 321 322 323 320 320 320 321 322 322 322 323 323 324 325 324 323 323 324 324 324 324 325 326 326 326 326
304 304 306 306 309 310 309 309 310 310 309 310 310 312 311 312 312 313 313 314 314 315 317 317 317 317 320 322 319 321 320 320 320 320 320 321 322 322 322 323 324 324 323 321 322 323 323 323 324 325 326 328 326 326
305 305 307 309 309 309 309 309 310 309 310 310 311 311 311 311 312 313 313 313 313 314 315 318 316 314 314 315 318 319 319 319 319 320 321 321 322 324 323 323 323 323 322 320 320 322 323 323 324 325 326 326 327 326
306 308 309 309 309 309 309 309 309 310 310 311 311 311 311 312 312 312 312 313 313 313 314 314 313 316 318 318 319 319 318 317 317 317 319 321 324 323 321 320 322 322 321 319 320 321 323 322 324 325 325 326 327 327
307 308 308 308 308 310 310 309 309 310 311 311 311 311 312 312 312 313 312 313 312 313 312 314 314 314 315 316 316 316 316 316 317 320 322 322 323 322 321 320 323 321 319 319 319 320 322 321 322 324 324 324 326 327
307 306 307 308 309 310 310 311 311 312 312 312 312 312 311 311 314 314 314 312 313 313 313 314 313 314 315 315 314 315 316 317 317 319 322 323 322 322 323 322 323 320 319 319 319 319 321 321 323 322 323 322 324 325
306 306 307 308 310 310 311 311 312 311 310 311 312 313 312 314 317 317 317 316 316 317 316 316 315 314 314 315 315 316 316 317 319 321 323 322 322 322 323 322 321 320 319 318 318 318 321 321 321 321 320 319 320 320
305 307 308 309 309 309 310 310 310 311 313 313 314 318 318 319 319 319 317 317 319 321 320 320 319 317 316 316 316 317 319 320 321 322 321 321 322 322 321 321 319 319 319 318 319 319 320 320 320 319 318 317 319 319
309 308 310 309 310 309 309 312 311 312 315 316 317 319 318 319 318 319 319 320 321 321 322 322 321 321 319 320 321 322 322 320 318 317 319 321 320 319 318 317 317 318 319 319 318 318 317 317 316 316 315 314 314 313
306 309 309 309 309 310 311 314 314 315 316 317 317 316 319 318 320 321 319 319 320 322 322 320 322 323 321 321 321 322 322 319 318 318 319 319 319 318 318 317 317 317 317 317 317 318 317 317 317 317 316 315 314 314
304 308 309 310 311 312 314 314 315 314 317 317 313 319 318 320 321 319 319 322 322 321 320 320 320 319 319 318 319 321 321 320 319 318 318 318 318 318 318 318 317 316 316 316 316 316 315 316 316 316 316 315 313 310
309 311 311 312 312 313 315 316 314 313 313 316 318 320 320 321 320 319 321 322 320 320 321 321 321 320 320 318 319 321 321 321 321 319 317 317 316 317 316 316 316 315 315 315 315 315 315 315 315 314 315 315 315 311
311 313 313 313 313 314 315 314 314 316 317 319 318 319 319 320 321 321 320 320 320 320 320 320 320 319 317 316 317 319 317 317 318 318 318 318 317 317 317 316 316 316 316 316 316 315 315 314 314 314 312 312 311 311
312 313 313 315 315 314 316 316 316 317 318 319 319 319 320 321 322 321 320 320 320 320 320 320 321 320 318 318 317 317 317 317 316 315 315 316 316 317 317 317 316 315 315 315 315 315 314 314 314 314 314 313 313 313
314 314 315 316 316 316 317 317 318 319 319 320 321 321 320 320 320 320 320 321 321 320 320 320 319 320 320 319 318 318 318 318 318 318 317 317 317 316 317 317 317 317 317 315 315 315 315 315 314 314 315 315 314 314
314 316 316 317 318 318 317 317 319 320 321 321 321 320 320 320 320 320 321 320 320 319 320 320 320 319 319 320 320 319 319 319 319 319 319 319 318 318 318 318 318 318 318 317 317 317 316 316 315 314 313 314 314 314
317 317 318 318 319 319 320 318 318 320 321 321 320 319 320 320 321 321 321 321 320 320 321 321 321 320 320 320 319 319 319 319 319 319 319 319 319 319 318 318 317 318 318 318 318 318 317 317 316 316 315 315 314 313
Wind_Speed
24 23 22 19 17 15 14 13 13 13 14 14 15 16 16 15 14 13 9 10 10 5 17 9 6 7 4 4 2 4 4 3 4 3 2 2 2 2 2 3 1 2 2 1 1 0 4 10 4 3 2 3 1 5
23 22 21 20 17 16 15 14 14 13 13 14 15 15 16 15 13 12 10 13 12 10 14 24 26 24 23 21 9 3 1 2 2 3 0 2 1 1 2 3 2 1 4 3 6 4 4 4 2 2 5 7 5 7
20 20 20 19 17 17 16 15 14 14 14 14 14 13 13 12 13 12 12 14 15 8 16 9 2 5 5 2 11 8 4 4 3 2 5 2 1 3 2 4 2 2 3 1 2 3 3 3 2 4 8 11 12 11
20 19 19 17 16 16 16 15 15 14 15 14 13 11 12 11 12 11 11 12 9 7 4 5 2 13 22 17 10 20 16 4 2 1 1 2 1 5 3 3 4 4 1 2 4 7 8 13 13 16 18 15 16 17
19 18 17 16 16 16 15 15 16 16 17 15 12 10 11 10 10 11 11 5 5 5 4 14 20 5 5 6 8 10 16 22 14 2 1 3 3 2 1 1 3 7 6 4 6 10 7 13 24 22 19 19 18 18
18 16 15 15 16 16 16 15 16 17 16 14 11 9 10 10 8 8 3 2 2 8 6 4 9 7 11 3 10 15 16 16 10 6 5 4 5 5 2 3 7 9 10 16 11 14 15 24 21 19 22 22 22 26
18 17 16 16 15 16 16 15 14 15 14 12 10 9 9 9 7 4 3 3 4 6 4 8 11 5 15 2 2 7 12 8 10 6 6 5 5 7 2 6 13 15 18 17 19 19 19 17 19 21 22 25 31 36
19 18 17 17 16 16 15 14 13 12 11 11 9 8 8 9 7 2 0 0 4 7 4 1 5 9 13 6 1 1 5 9 5 4 2 4 3 3 4 12 10 8 8 10 11 11 17 21 26 31 32 31 32 33
19 18 17 17 16 16 14 14 13 9 9 9 7 7 9 4 2 2 3 5 4 4 2 2 2 4 10 5 3 0 1 0 2 2 3 4 1 4 8 9 7 8 5 11 18 20 23 27 31 35 36 35 32 33
19 18 17 16 16 15 13 10 8 8 7 5 4 3 2 2 2 4 3 2 3 3 4 5 4 3 5 5 3 3 2 1 1 3 1 2 4 18 19 18 13 5 11 16 20 26 27 30 33 35 33 33 33 33
18 17 16 16 15 15 12 11 9 7 6 3 4 2 3 2 2 2 2 2 3 3 5 6 8 3 3 1 2 3 1 1 1 4 1 2 3 4 2 2 3 9 16 21 22 25 27 32 35 34 34 34 34 34
16 16 16 16 14 14 13 13 11 11 7 4 2 3 4 3 2 1 2 2 4 4 5 5 5 8 3 4 1 2 0 2 4 4 2 2 4 3 4 9 13 16 21 24 25 27 28 33 35 35 33 34 32 30
15 15 15 15 14 14 17 15 13 13 8 4 3 3 2 3 0 4 4 3 3 4 6 6 4 3 3 3 1 2 1 4 6 1 3 4 4 7 11 14 16 21 23 25 29 31 33 35 39 34 31 32 30 28
12 14 15 14 16 18 18 16 15 13 9 4 4 2 4 4 4 5 4 3 4 2 9 7 4 3 2 2 1 2 3 1 2 2 3 2 13 18 18 17 21 25 25 28 30 32 34 35 36 34 31 29 28 28
11 11 12 15 18 18 20 17 17 16 8 5 5 5 6 8 7 5 6 9 13 16 7 3 2 2 1 2 3 2 2 3 4 3 2 12 20 20 22 19 23 27 26 29 30 32 35 33 29 29 27 26 22 21
10 12 17 14 20 23 20 18 18 19 5 4 6 3 7 2 5 8 11 12 4 4 5 3 2 0 4 3 3 5 2 3 2 3 15 18 19 23 26 23 26 27 27 29 30 34 33 30 28 26 25 22 17 15
11 16 10 11 22 23 19 20 18 9 7 4 6 10 12 5 6 6 7 2 4 1 2 3 3 6 1 2 3 3 2 3 11 17 20 19 24 25 27 30 28 25 26 27 30 28 29 27 25 22 23 21 15 14
16 10 9 16 22 21 25 16 9 7 5 10 6 8 14 11 10 11 11 8 4 3 3 3 2 2 3 3 2 3 6 13 15 20 24 23 24 28 30 26 21 20 21 23 24 26 28 26 22 19 17 16 14 10
13 13 15 20 24 17 8 9 6 4 12 6 13 19 17 13 16 18 18 17 15 11 5 3 4 4 4 7 7 8 6 10 17 21 23 23 24 24 19 16 15 14 15 21 25 25 26 24 20 20 20 17 11 6
15 14 13 19 26 5 5 4 10 5 5 5 9 11 9 10 15 16 16 16 17 10 8 5 5 9 6 8 9 11 19 21 23 27 29 25 23 15 14 15 12 13 17 20 22 24 25 24 20 20 19 12 3 3
11 17 25 27 15 6 6 6 7 6 4 6 6 8 6 10 16 19 21 20 16 9 8 16 22 25 25 24 22 22 23 21 23 24 24 26 17 12 12 12 11 12 15 19 23 25 23 22 18 17 15 13 11 10
18 25 23 17 5 4 2 5 3 3 5 4 4 6 6 5 7 8 9 12 9 23 26 28 30 28 23 26 26 23 21 20 20 20 21 12 10 11 9 8 9 11 13 16 19 21 23 21 18 18 14 15 11 8
19 21 7 3 2 3 2 5 4 4 2 3 2 3 4 5 4 4 4 6 7 12 17 24 26 25 25 21 19 20 19 18 17 17 5 5 8 7 5 5 9 11 13 15 15 16 21 21 21 24 28 28 24 25
18 7 5 7 6 3 3 3 4 3 3 2 2 2 3 5 5 3 3 4 5 7 5 4 8 14 18 18 16 15 14 14 11 5 3 5 5 9 9 10 12 14 14 14 17 19 21 27 32 34 37 41 40 39
4 4 4 4 5 3 3 2 3 2 3 2 2 3 1 3 2 2 2 2 4 7 4 0 1 3 9 8 7 2 8 17 12 13 10 8 11 14 15 15 16 16 15 19 21 22 25 29 33 36 38 41 43 43
2 4 6 5 3 3 3 2 4 3 3 3 3 4 3 1 2 3 2 6 7 5 3 1 5 4 12 11 8 12 16 17 16 16 13 12 12 14 15 16 18 21 20 20 22 23 23 24 26 28 30 32 34 34
0 2 4 4 3 3 4 4 4 3 3 1 2 3 2 2 2 3 4 3 7 11 14 19 22 24 24 24 17 10 13 16 14 12 12 11 11 10 10 11 12 15 18 18 18 18 19 19 21 22 23 25 28 30
2 2 3 3 2 3 2 2 1 2 1 1 1 1 2 1 2 6 6 13 25 18 18 17 12 9 9 7 10 14 19 16 14 13 14 13 11 9 10 13 15 16 14 13 14 14 15 18 18 19 20 21 23 24
3 2 3 2 3 4 4 3 2 2 2 4 2 2 2 2 4 11 16 16 15 9 6 6 8 10 13 16 16 17 16 17 16 13 11 10 8 6 7 11 12 11 10 9 9 10 11 13 15 18 19 20 20 19
3 4 2 2 2 3 2 3 1 4 5 3 3 3 2 2 9 9 9 7 6 5 5 5 7 7 10 12 12 13 12 11 9 11 10 8 9 7 6 7 9 10 9 9 10 12 12 11 11 12 13 13 12 12
3 4 3 3 2 2 1 3 3 3 3 2 3 3 6 6 9 7 3 4 3 4 4 4 5 3 3 4 6 9 11 10 8 6 6 6 7 9 9 8 7 6 7 7 6 7 8 9 8 8 7 9 10 10
3 3 1 1 2 3 6 4 3 3 3 3 4 4 4 5 4 5 10 7 10 8 7 6 6 6 6 4 5 9 7 7 9 6 5 8 9 7 6 7 6 6 5 7 5 2 2 3 5 6 6 6 5 5
2 2 2 1 2 3 3 2 1 1 2 2 2 1 4 4 4 6 9 7 6 13 12 8 4 7 7 7 5 7 8 7 7 8 6 8 10 11 11 12 12 9 9 9 9 7 6 7 6 6 5 5 4 4
Wind_Direction
280 278 275 275 279 279 284 293 302 313 323 331 336 338 341 343 345 350 341 338 343 287 290 263 242 228 248 249 198 313 1 355 28 64 134 218 188 277 344 276 230 166 115 231 103 219 251 346 360 118 266 333 338 310
276 276 274 269 271 270 272 281 291 300 309 319 325 329 333 334 340 337 339 331 323 290 278 290 285 273 267 266 276 269 252 243 193 94 188 122 307 18 146 285 348 277 178 202 173 224 263 314 51 42 3 346 342 323
273 272 272 268 263 266 268 272 280 291 300 310 315 317 323 326 332 332 331 332 338 313 304 300 326 196 340 354 238 223 244 233 201 152 152 146 257 132 216 245 258 265 170 174 24 266 226 167 118 16 339 324 325 325
269 269 269 265 258 262 265 269 274 281 291 301 305 308 318 322 327 330 330 328 343 324 313 292 296 293 288 283 268 224 223 166 66 257 166 127 186 189 222 244 192 214 163 194 257 275 250 265 250 289 302 298 294 294
266 268 267 262 258 258 261 265 271 276 284 294 292 295 310 316 317 319 322 322 345 353 292 290 313 9 325 254 233 218 221 229 255 271 142 227 223 161 222 31 256 209 206 173 233 241 227 272 301 295 286 292 285 289
262 263 262 260 258 259 263 265 265 269 279 282 282 282 297 306 315 326 303 306 329 351 323 315 316 311 350 273 229 230 223 227 218 203 211 221 230 202 207 233 250 237 257 270 240 287 280 290 288 281 281 283 281 286
259 258 258 258 258 260 262 263 263 267 276 278 269 267 287 303 305 295 281 308 303 328 311 304 317 314 354 38 158 189 205 204 220 218 216 226 233 192 185 259 267 279 280 275 278 282 284 286 287 297 291 284 287 291
255 255 255 257 258 258 259 260 254 255 267 271 258 268 289 298 302 270 197 350 282 266 287 310 282 321 5 1 44 129 190 206 222 233 220 213 172 199 264 249 283 306 304 300 304 295 290 295 294 297 300 298 297 295
251 252 252 253 255 256 256 248 242 248 264 262 256 276 297 269 176 209 238 278 234 236 271 214 254 277 348 9 339 18 214 104 254 217 240 154 195 223 237 266 285 314 299 303 305 301 301 304 309 311 309 304 294 289
247 248 250 251 252 253 249 235 220 237 254 261 255 252 211 181 218 288 286 216 215 212 226 242 237 263 318 331 333 352 4 33 325 259 156 159 254 256 259 267 277 272 309 312 307 307 313 312 315 313 311 306 298 293
242 244 245 245 243 242 229 208 200 218 214 243 216 198 179 206 250 240 249 207 192 231 220 238 231 249 247 158 276 17 319 6 353 273 135 239 275 259 241 190 259 297 311 313 306 305 308 314 313 312 305 302 300 297
243 244 242 240 233 225 206 196 198 205 186 203 190 184 188 216 223 204 242 238 204 234 208 206 247 226 237 222 252 355 105 33 249 326 269 274 260 277 263 293 299 305 311 315 313 310 310 318 326 317 311 305 300 301
244 241 237 231 219 207 192 191 202 204 192 194 207 193 193 182 286 211 210 231 243 213 211 198 227 229 191 214 85 66 100 237 320 317 235 228 282 320 324 316 317 321 319 317 316 316 314 316 320 320 314 308 309 313
244 239 233 225 212 198 190 198 202 201 193 208 183 222 182 198 235 205 200 206 237 242 351 275 257 210 189 112 51 288 236 23 292 255 245 276 344 335 331 326 322 322 322 320 322 324 326 327 318 319 319 319 320 316
250 239 233 220 203 194 192 199 205 196 195 207 204 221 213 231 245 256 270 271 271 289 278 192 215 194 231 185 197 261 235 242 218 240 245 328 332 339 334 324 323 323 321 323 327 325 324 325 330 330 330 328 321 315
251 243 232 220 201 190 188 205 197 201 204 222 230 242 225 227 273 251 260 268 292 239 199 216 116 87 246 218 172 215 201 239 283 240 310 323 329 336 338 323 320 323 320 324 326 325 323 323 321 320 321 330 329 324
226 236 244 229 190 179 201 194 190 193 211 225 245 233 243 264 243 246 278 285 352 209 217 169 202 222 127 240 226 211 193 226 275 304 324 327 325 328 325 321 318 319 324 329 329 332 329 328 326 320 319 324 329 332
225 228 206 184 174 186 191 184 182 197 222 235 239 248 230 232 242 248 246 265 241 234 212 219 189 188 234 243 258 219 253 285 302 310 316 320 325 326 321 319 322 323 332 342 340 337 340 342 336 332 324 322 322 311
225 197 192 188 195 171 161 181 185 216 229 239 242 254 257 257 256 259 257 256 251 258 262 210 218 204 223 224 221 226 243 292 324 333 325 325 331 329 329 332 330 331 344 349 350 352 351 349 341 345 344 323 304 312
193 203 202 201 192 139 155 173 182 239 230 226 237 244 241 250 268 266 259 248 241 231 209 218 207 224 226 256 237 280 298 315 317 317 320 326 335 333 343 344 341 343 346 350 2 3 1 0 356 351 343 352 157 109
179 201 199 181 176 189 203 185 193 217 228 236 263 237 254 256 259 256 250 245 235 222 229 237 246 248 247 255 266 283 293 294 304 309 309 313 325 333 342 347 345 348 357 6 11 11 12 18 28 41 30 48 73 78
168 173 169 165 177 184 220 201 215 219 222 248 246 228 251 254 243 236 228 205 230 238 239 245 245 243 245 252 264 268 284 292 292 300 306 304 320 336 336 345 354 3 12 15 18 16 20 40 46 56 60 71 94 106
167 165 126 110 143 200 224 206 223 224 210 239 223 227 233 227 238 208 237 228 246 260 258 255 256 252 250 261 263 266 276 284 286 299 282 328 338 353 8 33 25 27 30 34 33 29 39 54 63 71 76 77 82 88
152 139 164 188 206 220 213 218 220 239 246 243 220 263 247 220 205 218 246 255 254 298 303 296 237 232 238 249 258 266 265 265 272 158 58 19 62 79 77 66 50 46 46 59 62 59 64 71 73 73 74 75 74 75
154 186 187 198 200 219 219 208 200 210 242 237 260 252 277 218 224 219 235 272 307 313 300 68 99 225 222 200 174 229 136 114 105 93 58 83 100 96 86 73 63 63 76 86 79 76 77 77 77 76 77 80 81 82
158 187 180 202 195 196 225 228 193 219 213 244 248 315 337 354 283 260 286 307 320 7 73 309 302 147 145 157 173 152 149 143 128 123 121 112 100 88 86 86 83 81 86 84 85 85 84 79 76 77 79 80 81 83
25 237 210 218 237 264 272 260 230 229 259 300 323 337 12 326 274 252 309 5 57 108 109 104 106 108 110 111 120 140 153 153 140 131 124 115 99 83 76 85 96 98 92 90 87 81 78 82 84 82 85 87 84 84
255 269 195 180 194 267 280 278 230 229 268 331 320 302 256 204 291 6 68 103 119 120 111 107 95 74 56 83 108 126 136 142 153 151 131 119 107 97 96 93 98 108 103 96 88 84 84 85 82 80 83 85 91 89
262 248 224 234 216 227 229 221 242 266 232 208 206 243 276 331 21 80 99 133 149 134 105 85 77 97 124 122 120 132 140 141 143 145 149 151 159 149 125 98 99 104 102 88 79 86 87 95 87 90 91 93 94 98
267 200 219 203 201 236 245 205 259 247 271 284 317 327 329 85 117 130 142 147 147 142 124 111 102 115 155 157 150 152 154 162 153 119 128 159 169 173 177 152 122 116 125 116 105 96 92 94 100 99 99 99 98 96
277 207 247 227 272 339 254 221 209 252 285 290 340 18 35 65 97 91 105 162 169 173 165 143 144 114 130 166 205 210 208 204 206 196 177 150 144 145 145 150 164 160 147 130 132 125 109 103 101 104 104 97 101 100
233 229 170 232 158 167 155 203 260 296 356 18 22 48 83 77 79 36 34 195 206 220 238 244 240 233 236 262 294 242 241 205 191 205 227 207 200 193 175 170 188 192 209 209 194 207 195 145 153 136 126 128 120 97
297 333 353 42 138 185 179 157 114 65 14 26 17 147 42 48 38 13 8 6 218 228 235 238 249 232 210 214 266 248 231 234 227 223 230 219 223 233 243 249 249 241 231 232 238 237 250 226 220 188 177 168 151 146